www.pogodaiklimat.ru

Погода и климат >> Архив погоды >> Южная Африка >> Странд


ПОГОДА в Странде

  • Прогноз погоды в Странде
  • Монитор погоды в Странде

АРХИВ ПОГОДЫ в Странде

Время (UTC), дата Ветер
(напр.,м/с)
 
Видим.   Явления Облачность Т
(С)
Тd
(С)
f
(%)
Тe
(С)
Тes
(С)
Комфортность P
(гПа)
Po
(гПа)
Тmin
(С)
Tmax
(С)
R
(мм)
R24
(мм)
S
(см)
15 12.08 З 4 н/о н/о +14.8 +9.8 72 +14 +14 1024.2 1023.4 +14.2 +16.2
18 12.08 С 1 н/о н/о +12.1 +7.6 74 +12 +12 1025.5 1024.7 +12.1 +16.2
21 12.08 штиль 0 н/о н/о +11.3 +8.0 80 +11 +11 1025.3 1024.5 +10.8 +16.2
00 13.08 штиль 0 н/о н/о +8.7 +6.8 88 +8 +8 1024.9 1024.1 +8.6 +16.2
03 13.08 штиль 0 н/о н/о +8.4 +6.7 89 +8 +8 1024.3 1023.5 +7.9 +16.2
06 13.08 штиль 0 н/о н/о +10.5 +7.2 80 +10 +10 1025.4 1024.6 +7.9
09 13.08 С 4 н/о н/о +16.7 +9.7 63 +16 +16 1026.6 1025.8 +7.9 +16.7
12 13.08 С 6 н/о н/о +16.4 +9.6 64 +15 +15 1024.8 1024.0 +7.9 +17.7 0.2
15 13.08 С 4 н/о н/о +16.0 +9.9 67 +15 +15 1024.7 1023.9 +15.9 +17.7
18 13.08 С 4 н/о н/о +14.4 +10.6 78 +13 +13 1026.3 1025.5 +14.4 +17.7 0.2
21 13.08 С 3 н/о н/о +14.0 +11.7 86 +13 +13 1027.6 1026.8 +13.6 +17.7
00 14.08 С 4 н/о н/о +14.3 +12.0 86 +13 +13 1027.5 1026.7 +13.6 +17.7 0.2
03 14.08 С 3 н/о н/о +14.3 +12.3 88 +13 +13 1027.8 1027.0 +13.6 +17.7
06 14.08 С 3 н/о н/о +14.5 +12.7 89 +14 +14 1030.0 1029.2 +13.6 0.6
09 14.08 ЮЗ 3 н/о н/о +17.7 +14.0 79 +18 +18 1031.5 1030.7 +13.6 +18.4
12 14.08 З 3 н/о н/о +18.2 +14.7 80 +19 +19 1030.2 1029.4 +13.6 +19.2
15 14.08 ЮЗ 6 н/о н/о +16.8 +12.4 75 +16 +16 1029.9 1029.1 +16.8 +19.2
18 14.08 В 3 н/о н/о +16.3 +10.6 69 +16 +16 1029.4 1028.6 +15.9 +19.2
21 14.08 В 3 н/о н/о +15.6 +10.0 69 +15 +15 1028.8 1028.0 +15.6 +19.2
00 15.08 штиль 0 н/о н/о +10.5 +8.7 89 +10 +10 1027.9 1027.1 +10.3 +19.2
03 15.08 штиль 0 н/о н/о +8.8 +7.1 89 +8 +8 1026.6 1025.8 +8.8 +19.2
06 15.08 штиль 0 н/о н/о +8.4 +7.0 91 +7 +7 1027.2 1026.4 +8.4
09 15.08 штиль 0 н/о н/о +14.9 +10.9 77 +15 +15 1028.2 1027.4 +8.4 +14.9
12 15.08 СЗ 2 н/о н/о +17.0 +12.9 77 +18 +18 1025.8 1025.0 +8.4 +17.0 0.2
15 15.08 ЮЗ 2 н/о н/о +17.3 +13.0 76 +18 +18 1024.6 1023.8 +16.7 +19.0
18 15.08 штиль 0 н/о н/о +14.0 +11.5 85 +14 +14 1024.6 1023.8 +14.0 +19.0 0.2
21 15.08 штиль 0 н/о н/о +11.4 +9.9 90 +11 +11 1024.1 1023.3 +11.4 +19.0
00 16.08 СЗ 1 н/о н/о +11.0 +9.2 89 +11 +11 1023.4 1022.6 +10.6 +19.0 0.2
03 16.08 штиль 0 н/о н/о +8.4 +7.1 92 +7 +7 1023.9 1023.1 +8.3 +19.0
06 16.08 штиль 0 н/о н/о +10.8 +9.4 91 +10 +10 1025.6 1024.8 +8.3 0.2
09 16.08 З 2 н/о н/о +17.3 +12.0 71 +18 +18 1026.5 1025.7 +8.3 +17.3
12 16.08 ЮЗ 5 н/о н/о +19.8 +13.1 65 +21 +21 комфорт 1025.2 1024.4 +8.3 +20.2
15 16.08 ЮВ 4 н/о н/о +19.0 +9.8 55 +20 +20 1025.1 1024.3 +18.8 +20.8
18 16.08 ЮВ 7 н/о н/о +17.0 +9.5 61 +16 +16 1025.3 1024.5 +16.9 +20.8
21 16.08 В 9 н/о н/о +16.5 +9.5 63 +15 +15 1024.5 1023.7 +16.1 +20.8
00 17.08 В 11 н/о н/о +16.1 +9.8 66 +14 +14 1023.3 1022.5 +16.0 +20.8 0.2
03 17.08 В 9 н/о н/о +15.1 +9.5 69 +13 +13 1022.0 1021.2 +15.0 +20.8
06 17.08 В 11 н/о н/о +15.3 +8.6 64 +13 +13 1021.5 1020.7 +15.0 0.2
09 17.08 ЮВ 12 н/о н/о +18.8 +9.6 55 +18 +18 1020.4 1019.6 +15.0 +18.8
12 17.08 В 9 н/о н/о +22.4 +9.3 43 +24 +24 комфорт 1018.0 1017.2 +15.0 +22.5
15 17.08 В 6 н/о н/о +22.4 +11.6 50 +25 +25 комфорт 1016.5 1015.7 +22.3 +23.3
18 17.08 В 3 н/о н/о +19.5 +10.0 54 +21 +21 комфорт 1016.6 1015.8 +19.5 +23.3
21 17.08 З 2 н/о н/о +13.8 +11.6 87 +14 +14 1015.7 1014.9 +13.5 +23.3
00 18.08 С 2 н/о н/о +12.0 +8.6 80 +11 +11 1014.7 1013.9 +11.9 +23.3
03 18.08 З 3 н/о н/о +13.3 +10.5 83 +12 +12 1013.4 1012.6 +11.5 +23.3
06 18.08 В 1 н/о н/о +11.4 +7.9 79 +11 +11 1014.8 1014.0 +10.8
09 18.08 СЗ 5 н/о н/о +17.8 +12.7 72 +17 +17 1017.4 1016.6 +10.8 +19.2
12 18.08 З 3 н/о н/о +17.1 +13.4 79 +17 +17 1018.0 1017.2 +10.8 +19.3
15 18.08 З 4 н/о н/о +16.1 +13.6 85 +15 +15 1019.6 1018.8 +15.9 +19.3
18 18.08 З 3 н/о н/о +14.8 +12.6 87 +14 +14 1022.0 1021.2 +14.3 +19.3
21 18.08 СЗ 3 н/о н/о +14.5 +11.5 82 +14 +14 1024.0 1023.2 +13.1 +19.3
00 19.08 ЮЗ 7 н/о н/о +14.2 +11.7 85 +12 +12 1025.8 1025.0 +12.9 +19.3
03 19.08 З 3 н/о н/о +13.7 +9.1 74 +13 +13 1027.2 1026.4 +12.9 +19.3
06 19.08 СВ 2 н/о н/о +11.8 +8.1 78 +11 +11 1028.6 1027.8 +11.6
09 19.08 З 1 н/о н/о +16.4 +8.4 59 +17 +17 1031.4 1030.6 +11.6 +16.9
12 19.08 З 4 н/о н/о +17.7 +10.6 63 +18 +18 1030.7 1029.9 +11.6 +18.3

 

Местоположение метеостанции Странд (Южная Африка): широта -34.14 долгота 18.85 высота над уровнем моря 7 м.

В архиве по умолчанию представлена погода в Странде за последнюю неделю. Архивные данные за месяц целиком и за предыдущие месяцы, начиная с января 2011 года, Вы можете получить, выбрав интересующий диапазон дат из раскрывающегося списка и нажав кнопку "Ввод!".


*Определитесь, кто Вы:
робот инопланетянин человек

Внимание! Время в таблицах - всемирное. Для получения местного времени необходимо прибавить поправку, которая равна 2 ч.

Смотрите также архив погоды в соседних городах и на ближайших метеорологических станциях:

Погода в Кейптауне (Южная Африка) (31 км)
Погода в Кейптауне аэропорту АМС (Южная Африка) (31 км)
Погода на Кейп-Пойнт (Южная Африка) (40 км)
Погода в Йестерпланте (Южная Африка) (42 км)
Погода в Кейптауне (Южная Африка) (46 км)
Погода в Херманусе (Южная Африка) (47 км)
Погода в Кейптаун порту (Южная Африка) (47 км)
Погода в Парле (Южная Африка) (48 км)
Погода на Слангкопе (Южная Африка) (49 км)
Погода на Роббенэйланде (Южная Африка) (58 км)

Пояснения к столбцам:

Ветер - указаны скорость ветра в м/с - средняя за 10 мин, порывы в срок и между сроками (в фигурных скобках) и направление, откуда дует ветер: С - северный, СВ - северо-восточный, В - восточный, ЮВ - юго-восточный, Ю - южный, ЮЗ - юго-западный, З - западный, СЗ - северо-западный.
Видимость - горизонтальная дальность видимости в метрах или километрах. При видимости от 1 до 10 км при отсутствии осадков обычно наблюдается дымка, при ухудшении видимости до 1 км и менее - туман. В сухую погоду видимость может ухудшаться дымом, пылью или мглою.
Явления - указаны атмосферные явления, наблюдавшиеся в срок или в последний час перед сроком; фигурными скобками обозначены явления, наблюдавшиеся между сроками (за 1-3 часа до срока); квадратными скобками обозначены град или гололедные отложения с указанием их диаметра в мм.
Облачность - указаны через наклонную черту общая и нижняя облачность в баллах и высота нижней границы облаков в метрах; квадратными скобками обозначены формы облаков: Ci - перистые, Cs - перисто-слоистые, Cc - перисто-кучевые, Ac - высококучевые, As - высокослоистые, Sc - слоисто-кучевые, Ns - слоисто-дождевые, Cu - кучевые, Cb - кучево-дождевые. Подробнее классификацию облаков см. в Атласе облаков (PDF).
T - Температура воздуха - температура, измеренная на высоте 2 м над землей.
Td - Температура точки росы - температура, при понижении до которой содержащийся в воздухе водяной пар достигнет насыщения.
f - Относительная влажность воздуха - влажноcть воздуха, измеренная на высоте 2 м над землей.
Te - Эффективная температура - температура, которую ощущает одетый по сезону человек в тени. Характеристика душности погоды. При расчете учитывается влияние влажности воздуха и скорости ветра на теплоощущения человека.
Tes - Эффективная температура на солнце - температура, которую ощущает человек, с поправкой на солнечный нагрев. Характеристика знойности погоды. Зависит от высоты солнца над горизонтом, облачности и скорости ветра. Ночью, в пасмурную погоду, а также при ветре 12 м/с и более поправка равна нулю.
P - Атмосферное давление - приведенное к уровню моря атмосферное давление.
Po - Атмосферное давление - измеренное на уровне метеостанции атмосферное давление.
Tmin - Минимальная температура - минимум температуры воздуха на высоте 2 м над землей.
Tmax - Максимальная температура - максимум температуры воздуха на высоте 2 м над землей.
R - Количество осадков - Количество выпавших осадков за период времени, мм. При наведении курсора мыши на число - период времени, за который выпало указанное количество осадков.
R24 - Количество осадков - Количество выпавших осадков за 24 часа, мм.
S - Снежный покров - Высота снежного покрова, см. При наведении курсора мыши на число - состояние снежного покрова и степень покрытия местности в баллах.